GW0870 Weather Reports


Display with metric or nautical units.
time (UTC)temp
F
wind
direction
speed
MPH
gust
MPH
rain 1hr
in
rain 24hr
in
rain mn
in
humidity
%
barometer
mb
20260506121547 64 202 4.0 9.0 0.00 0.00 0.00 74 1014.6
20260506120044 63 279 2.0 8.0 0.00 0.00 0.00 73 1014.5
20260506114550 63 141 1.0 3.0 0.00 0.00 0.00 74 1014.1
20260506113047 62 230 1.0 6.0 0.00 0.00 0.00 74 1013.9
20260506111550 62 209 1.0 5.0 0.00 0.00 0.00 75 1013.6
20260506110056 62 237 1.0 5.0 0.00 0.00 0.00 75 1013.4
20260506104558 62 223 0.0 9.0 0.00 0.00 0.00 75 1013.3
20260506103048 62 196 2.0 6.0 0.00 0.00 0.00 75 1012.9
20260506101556 62 209 1.0 3.0 0.00 0.00 0.00 75 1013.1
20260506100045 62 148 1.0 5.0 0.00 0.00 0.00 75 1013.0
20260506094554 62 277 1.0 9.0 0.00 0.00 0.00 75 1013.1
20260506093050 62 226 1.0 8.0 0.00 0.00 0.00 74 1013.2
20260506091544 62 178 2.0 8.0 0.00 0.00 0.00 74 1013.3
20260506090049 62 294 1.0 4.0 0.00 0.00 0.00 75 1013.6
20260506084547 62 0 1.0 3.0 0.00 0.00 0.00 74 1013.8
20260506083041 62 137 1.0 6.0 0.00 0.00 0.00 74 1013.9
20260506081549 63 210 0.0 6.0 0.00 0.00 0.00 73 1013.8
20260506073050 64 132 1.0 6.0 0.00 0.00 0.00 72 1014.0
20260506071557 64 270 2.0 7.0 0.00 0.00 0.00 72 1013.7
20260506061543 64 236 2.0 10.0 0.00 0.00 0.00 71 1014.1
20260506044541 66 113 0.0 4.0 0.00 0.00 0.00 65 1014.5
20260506043040 66 141 1.0 6.0 0.00 0.00 0.00 65 1014.6
20260506041557 66 180 1.0 5.0 0.00 0.00 0.00 64 1014.4
20260506040039 67 158 0.0 6.0 0.00 0.00 0.00 63 1014.2
20260506034545 67 283 2.0 7.0 0.00 0.00 0.00 61 1014.3
20260506033042 68 242 2.0 8.0 0.00 0.00 0.00 60 1014.1
20260506031542 68 253 2.0 8.0 0.00 0.00 0.00 57 1014.1
20260506030042 68 247 1.0 8.0 0.00 0.00 0.00 55 1014.0
20260506024542 67 184 1.0 5.0 0.00 0.00 0.00 56 1014.0
20260506023046 65 0 0.0 3.0 0.00 0.00 0.00 58 1014.3
20260506021545 65 0 0.0 4.0 0.00 0.00 0.00 59 1014.3
20260506020049 64 0 0.0 0.0 0.00 0.00 0.00 60 1014.2
20260506014549 65 0 0.0 0.0 0.00 0.00 0.00 56 1014.2
20260506013047 67 0 0.0 0.0 0.00 0.00 0.00 51 1014.0
20260506011545 69 0 0.0 0.0 0.00 0.00 0.00 49 1013.9
20260506010048 71 0 0.0 0.0 0.00 0.00 0.00 45 1013.8
20260506004545 72 188 0.0 6.0 0.00 0.00 0.00 43 1013.5
20260506003042 73 0 0.0 4.0 0.00 0.00 0.00 42 1013.4
20260506001559 74 148 1.0 6.0 0.00 0.00 0.00 41 1013.3
20260506000048 75 155 2.0 8.0 0.00 0.00 0.00 40 1013.2
20260505234553 75 126 1.0 6.0 0.00 0.00 0.00 40 1013.1
20260505233054 76 211 1.0 4.0 0.00 0.00 0.00 39 1013.1
20260505231551 77 172 3.0 12.0 0.00 0.00 0.00 37 1013.2
20260505230042 77 164 5.0 14.0 0.00 0.00 0.00 36 1013.1
20260505224542 78 74 2.0 8.0 0.00 0.00 0.00 36 1013.2
20260505223054 79 119 4.0 12.0 0.00 0.00 0.00 36 1013.2
20260505221544 79 155 3.0 9.0 0.00 0.00 0.00 36 1013.4
20260505220047 79 194 2.0 11.0 0.00 0.00 0.00 36 1013.4
20260505214601 80 206 3.0 10.0 0.00 0.00 0.00 35 1013.5
20260505213053 79 242 5.0 16.0 0.00 0.00 0.00 36 1013.7
20260505211548 79 159 6.0 13.0 0.00 0.00 0.00 35 1013.5
20260505210051 79 223 3.0 10.0 0.00 0.00 0.00 36 1013.5
20260505204549 79 190 3.0 14.0 0.00 0.00 0.00 37 1013.5
20260505203047 79 229 3.0 12.0 0.00 0.00 0.00 36 1013.7
20260505201557 79 148 6.0 15.0 0.00 0.00 0.00 35 1014.1
20260505200040 80 247 4.0 10.0 0.00 0.00 0.00 35 1014.2
20260505194541 80 153 5.0 12.0 0.00 0.00 0.00 35 1014.2
20260505193045 80 95 3.0 9.0 0.00 0.00 0.00 37 1014.5
20260505191551 79 248 3.0 9.0 0.00 0.00 0.00 37 1014.9
20260505190048 79 238 5.0 10.0 0.00 0.00 0.00 38 1015.1
20260505184600 80 252 3.0 13.0 0.00 0.00 0.00 36 1015.3
20260505183048 80 233 2.0 10.0 0.00 0.00 0.00 35 1015.7
20260505181539 79 88 3.0 10.0 0.00 0.00 0.00 36 1015.8
20260505180049 78 227 6.0 12.0 0.00 0.00 0.00 37 1015.8
20260505174543 78 284 3.0 12.0 0.00 0.00 0.00 39 1015.8
20260505173044 77 242 2.0 13.0 0.00 0.00 0.00 39 1015.9
20260505171550 77 209 3.0 11.0 0.00 0.00 0.00 39 1015.9
20260505170051 77 121 4.0 10.0 0.00 0.00 0.00 36 1016.3
20260505164546 76 139 2.0 8.0 0.00 0.00 0.00 41 1016.3
20260505163042 75 210 4.0 10.0 0.00 0.00 0.00 44 1016.5
20260505161552 75 304 3.0 10.0 0.00 0.00 0.00 47 1016.5
20260505153057 73 225 4.0 11.0 0.00 0.00 0.00 52 1016.9
20260505151546 73 173 1.0 8.0 0.00 0.00 0.00 55 1017.0
20260505150112 71 277 3.0 8.0 0.00 0.00 0.00 56 1016.8
20260505124549 62 172 2.0 14.0 0.00 0.00 0.00 74 1016.7
20260505123100 60 165 2.0 7.0 0.00 0.00 0.00 76 1016.7